Temp_Advection
nan nan nan nan nan nan nan nan nan nan nan nan nan nan nan nan nan nan nan nan nan nan nan nan nan nan nan nan nan nan nan nan nan nan nan nan nan nan nan nan nan nan nan nan nan
nan 0 0 -0 -0 0 0 0 -0 0 0 0 0 0 0 0 0 -0 -0 0 0 0 0 0 0 0 -0 -0 -0 -0 0 -0 0 -0 0 -0 -0 -0 -0 -0 -0 -0 -0 0 nan
nan 0 -0 -0 -0 0 0 0 0 0 0 0 0 0 -0 0 -0 -0 0 0 0 0 0 0 0 -0 -0 -0 -0 -0 -0 0 -0 0 0 0 -0 -0 0 -0 -0 -0 -0 -0 nan
nan -0 -0 -0 -0 -0 -0 -0 -0 -0 0 0 0 0 -0 0 -0 -0 0 0 0 0 0 0 0 -0 -0 0 0 -0 -0 -0 -0 0 0 0 -0 0 -0 -0 0 0 -0 -0 nan
nan 0 0 -0 -0 -0 -0 -0 -0 0 0 0 0 0 -0 -0 -0 0 0 0 0 0 0 0 -0 -0 -0 0 -0 -0 -0 -0 -0 0 0 0 0 -0 -1 -0 -0 0 0 -0 nan
nan 0 0 0 0 -0 -0 -0 -0 0 0 0 0 0 -0 -0 0 0 0 0 0 0 0 0 -0 -0 -0 -0 -0 -0 -0 -0 -0 -0 0 0 0 -0 -0 0 0 -0 0 -0 nan
nan 0 -0 -0 0 0 0 -0 -0 0 0 0 0 0 -1 -0 0 0 0 0 -0 0 -0 -0 0 -0 -0 -0 -0 -0 -0 -0 0 -0 0 0 0 -0 -0 0 -0 -0 -0 -0 nan
nan 0 0 -0 -0 -0 0 0 0 0 0 0 0 -0 -0 -0 0 0 0 -0 -0 -0 -0 -0 0 -0 -0 -0 -0 -0 -0 0 -0 -0 -0 -0 -0 -0 0 -0 -1 -0 -0 -0 nan
nan 0 -0 -0 0 0 -0 0 0 0 0 0 0 -0 -0 0 0 0 0 -0 0 0 -0 0 -0 -0 -0 -0 -0 0 0 0 -0 -0 -0 -0 0 -0 -0 -0 -0 -0 -0 -0 nan
nan 0 -0 -0 -0 0 -0 0 0 0 0 -0 -0 -0 -0 -0 0 0 0 -0 -0 0 -0 -0 -1 -0 -0 0 -0 -0 -0 0 -0 -0 -0 0 0 -1 -1 -0 -0 -0 -0 -0 nan
nan 0 0 -0 -0 -0 0 0 0 -0 -2 -1 -0 -0 0 0 0 0 0 -0 -0 -0 -0 -0 -0 0 -0 -0 0 0 0 0 -0 -0 -0 0 0 -0 -1 0 0 0 0 -0 nan
nan 0 0 0 -0 -0 -0 -0 -0 -0 -0 0 0 0 0 0 -0 -0 -0 -0 -0 -0 -0 -0 0 -0 -0 -0 -0 0 -0 0 0 -0 0 -0 0 -0 0 0 0 0 -0 -0 nan
nan -0 -0 0 0 0 0 -0 0 -0 -0 -0 -0 -0 0 -0 -0 -0 -0 -0 -0 -0 -0 0 0 -0 -0 0 0 -0 -0 -0 0 0 -0 -0 -0 0 0 0 0 0 -0 -0 nan
nan 0 0 0 0 0 0 -0 0 -0 -0 -1 0 0 0 -0 -0 -0 -0 -0 -0 -0 -0 0 -0 -0 -0 -0 0 0 0 -0 -0 -0 0 0 -0 -0 -0 -0 0 -0 -0 -0 nan
nan 0 -0 -0 0 0 0 0 0 -0 0 -0 -0 -0 -0 -0 -0 0 0 -0 -0 -0 0 -0 0 0 -0 0 0 0 -0 -0 0 0 0 0 -0 -0 -0 -0 -0 -0 -0 -0 nan
nan 0 -0 -0 -0 -0 0 0 -0 -1 -0 -0 -0 -0 -0 -0 -0 -0 -0 -0 -0 -0 0 0 0 -0 0 0 0 -0 -0 -0 -0 0 0 0 -0 -0 -0 0 0 -0 -0 -0 nan
nan -0 -0 -0 -0 -0 0 -0 -1 0 -0 -0 -0 -0 -0 -0 -0 -0 -0 -0 0 -0 -0 -0 -0 0 -0 0 -0 -0 -0 -0 0 0 -0 -0 -0 -1 -0 0 0 0 -0 -0 nan
nan -0 -0 -0 -0 -0 -0 -1 0 -0 0 -0 -0 0 0 0 -0 0 -0 0 -0 -0 -0 0 -0 -0 -0 -0 -0 -0 -0 -0 0 0 -0 -0 -0 -0 0 0 0 -0 -0 -0 nan
nan 0 -0 -0 0 0 0 -0 -0 0 0 0 0 0 0 0 0 -0 -0 -0 -0 0 -0 0 -0 -0 -0 -0 -0 -0 -0 -0 -0 0 0 -0 -0 -0 0 0 0 0 -0 -0 nan
nan 0 -0 -0 -0 -0 -0 -0 0 -0 0 0 0 0 0 0 -0 -0 0 -0 -0 -0 -0 0 -0 -0 0 -0 -0 -0 -0 -0 -0 -0 -0 0 -0 -0 0 0 0 0 -0 -0 nan
nan 0 -0 0 -0 -0 -0 -0 -0 -0 0 0 0 0 0 0 -0 -0 -0 0 -0 -0 -0 -0 0 -0 0 0 -0 -0 -0 -0 -0 0 0 -0 -0 0 0 0 -0 0 0 -0 nan
nan -0 -0 0 -0 -0 0 -0 -0 0 0 -0 0 0 0 0 -0 0 0 0 -0 -0 -0 -0 -0 -0 -0 -0 0 -0 0 -0 -0 0 0 -0 -1 -0 -0 -0 -0 -0 -0 -0 nan
nan 0 -0 -0 -0 0 -0 0 0 -0 0 0 -0 0 0 0 0 0 0 -0 0 -0 -0 -0 -0 0 -0 0 -0 0 0 -0 -0 -0 -0 -0 -1 -0 0 0 -0 0 -0 -0 nan
nan -0 -0 -0 -1 0 0 0 -0 0 0 0 0 -0 -0 0 -0 -0 -0 -0 0 0 0 -0 0 -0 -0 0 0 0 0 0 -0 -0 -1 -1 -1 0 0 -0 -0 -0 -0 -0 nan
nan 0 -0 -0 -0 0 0 -0 0 0 0 0 0 0 0 0 0 0 0 -0 -0 -0 -0 -0 0 0 0 0 -0 -0 0 0 -0 -1 -0 -1 0 0 0 -0 -0 -0 -0 0 nan
nan -0 0 0 -0 0 0 0 0 -0 0 0 0 -0 0 0 0 -0 -0 -0 0 -0 0 -0 0 -0 -1 -1 -0 -0 -0 -0 -0 -0 -0 0 -1 -0 0 0 -0 0 0 -0 nan
nan nan nan nan nan nan nan nan nan nan nan nan nan nan nan nan nan nan nan nan nan nan nan nan nan nan nan nan nan nan nan nan nan nan nan nan nan nan nan nan nan nan nan nan nan
Wind_Speed
20 19 18 14 14 17 17 18 19 18 16 15 13 12 12 10 9 8 6 5 6 6 5 4 3 5 6 6 5 3 4 1 3 4 3 2 6 2 5 9 6 4 7 13 14
17 14 13 17 17 17 18 19 18 16 15 15 15 15 14 13 11 11 8 6 6 5 4 3 4 4 5 4 3 5 4 6 3 2 2 5 2 7 5 8 4 6 7 9 12
15 13 13 14 15 17 19 17 15 13 14 13 10 8 8 8 4 7 7 6 6 5 4 4 4 4 5 4 4 2 4 3 1 3 4 3 5 2 3 4 2 9 14 17 16
12 13 14 14 15 15 15 14 12 11 9 6 5 4 3 2 3 5 7 4 4 4 3 3 3 3 4 3 2 2 1 1 1 1 2 3 7 5 7 6 9 11 15 15 12
14 14 14 13 13 12 11 10 10 8 5 5 4 2 6 7 7 6 6 4 3 3 3 3 3 4 5 4 2 2 2 2 5 11 12 9 8 6 17 13 7 7 13 11 11
10 11 12 12 12 11 10 10 8 5 6 5 4 5 5 7 7 7 4 5 4 4 4 3 5 7 7 4 3 2 5 10 5 6 4 3 3 2 3 4 4 16 14 8 12
8 7 7 8 10 10 9 7 6 7 6 7 10 12 13 8 9 8 4 5 6 5 7 8 7 4 5 3 2 2 5 4 2 4 2 7 2 6 4 8 11 20 12 7 13
5 6 5 5 6 6 6 6 6 6 4 4 3 5 7 10 11 9 6 6 6 6 6 6 7 9 4 3 4 3 4 4 2 8 2 3 7 5 4 6 21 14 9 9 13
4 4 5 4 4 5 5 6 6 5 5 5 4 4 5 7 9 11 8 6 6 6 7 6 5 4 3 4 3 7 1 3 8 4 4 1 7 5 8 18 14 8 5 10 12
4 3 3 3 4 5 7 7 6 5 3 4 6 4 6 4 7 11 5 4 3 3 2 2 4 4 4 5 2 2 2 3 6 3 4 6 13 9 22 12 8 4 6 10 13
5 3 2 2 3 5 7 7 2 4 20 11 8 5 5 4 8 9 4 3 3 4 3 4 6 3 2 1 3 2 2 4 4 2 6 3 9 12 15 1 4 6 8 10 13
8 3 4 3 5 6 3 1 4 8 10 10 10 8 7 5 3 12 4 2 3 2 2 5 3 2 2 2 1 3 3 3 4 2 3 6 11 5 7 5 7 6 8 10 11
11 6 2 3 6 6 2 6 9 6 5 6 7 6 4 5 5 10 7 3 4 4 5 5 2 2 2 1 2 3 2 2 3 7 1 7 4 4 3 3 3 8 9 9 11
14 9 2 3 4 7 5 7 4 2 5 7 3 4 4 1 2 7 6 2 5 3 2 3 1 1 2 3 3 1 1 1 4 5 3 5 4 3 3 3 3 8 10 9 10
15 11 7 2 5 8 7 9 3 1 4 3 2 3 4 3 3 7 7 4 3 2 5 1 2 2 3 2 1 2 2 1 1 2 2 2 3 6 2 3 0 5 7 9 10
11 11 7 6 5 6 10 6 2 6 3 4 3 6 4 6 4 4 3 4 3 3 0 2 2 1 1 1 0 3 3 3 3 2 2 1 4 5 4 4 3 2 6 8 11
7 9 8 4 7 9 7 3 5 6 2 2 2 4 1 3 3 5 3 5 1 2 4 4 1 2 1 1 0 6 5 4 5 4 4 1 1 8 3 3 4 3 6 8 8
1 7 6 4 4 3 1 4 5 3 3 0 1 2 0 3 1 5 2 2 2 3 3 3 5 3 4 3 1 4 2 4 4 2 5 4 6 5 3 4 7 9 8 6 6
3 1 6 4 1 2 1 5 6 5 3 1 1 1 2 1 2 1 1 2 1 2 4 3 3 1 5 2 2 1 3 1 3 1 2 4 7 6 3 3 8 11 15 13 4
5 1 6 7 2 1 4 3 2 3 4 2 3 1 1 4 4 5 2 1 2 3 1 2 4 3 1 2 6 2 4 3 3 2 5 5 5 5 5 8 6 6 9 13 7
4 1 4 8 2 0 3 4 3 2 2 3 4 3 2 1 0 2 2 1 1 2 5 3 3 3 1 2 4 2 1 4 2 3 4 3 6 5 6 8 9 3 9 15 14
3 1 4 6 1 3 2 3 3 3 0 0 2 2 3 2 1 2 2 3 5 6 3 1 4 3 6 3 1 2 3 5 3 4 4 2 7 4 5 5 13 1 9 16 13
9 2 0 3 2 1 1 1 0 2 2 1 1 1 1 3 1 3 2 1 6 4 5 5 1 3 8 3 1 3 4 4 3 2 7 3 6 1 2 5 6 12 18 18 2
5 4 1 4 7 5 1 1 1 1 1 2 1 2 2 1 2 2 2 2 2 3 3 7 4 7 7 6 3 4 5 5 6 3 8 13 24 11 10 12 20 24 26 17 6
2 2 3 2 1 8 4 3 1 1 1 2 1 4 4 4 2 4 2 3 1 1 2 2 5 5 7 7 5 11 12 11 13 16 13 30 18 18 10 13 26 20 11 7 1
1 1 2 2 3 2 3 8 5 2 4 2 2 2 3 4 5 4 3 2 5 1 5 1 4 2 5 7 12 17 13 16 20 20 21 24 28 16 18 5 6 4 3 3 4
2 1 1 1 2 1 3 4 6 7 2 1 4 4 3 5 7 10 12 9 10 6 7 6 4 2 6 2 5 10 15 18 5 5 8 9 7 2 3 8 9 7 9 9 12
Wind_Direction
82 88 113 112 132 119 121 130 130 127 115 118 126 128 130 128 135 127 90 50 68 93 101 96 97 106 107 83 75 95 64 163 218 170 271 344 15 318 296 286 302 279 301 317 325
80 85 94 108 112 121 123 124 125 124 116 120 119 120 124 116 121 99 83 72 86 107 98 116 106 107 74 70 52 78 108 213 193 196 259 319 310 311 313 316 309 321 328 334 336
71 74 91 105 114 117 125 129 132 131 116 118 121 127 127 126 93 45 62 83 91 105 112 117 117 99 81 68 32 98 163 189 301 245 282 292 292 261 279 310 321 326 332 338 342
74 85 97 107 112 125 133 139 144 134 108 100 108 127 145 89 109 35 50 77 86 119 144 142 129 84 83 90 63 81 116 191 291 247 287 265 294 279 230 247 316 317 331 332 343
91 95 99 106 115 126 137 146 139 119 93 96 89 119 131 87 66 38 34 46 58 105 164 144 106 108 105 97 58 58 348 290 284 291 279 274 262 258 277 289 275 316 329 337 344
81 95 103 111 117 125 137 141 140 116 105 78 86 115 130 74 52 27 37 44 65 94 107 116 108 101 98 82 81 334 306 294 302 298 271 282 285 344 238 151 186 347 337 348 347
56 64 94 113 124 128 129 132 126 116 97 90 90 91 93 77 51 28 53 53 57 74 84 89 103 86 102 93 32 337 345 331 18 346 320 337 273 226 228 242 295 333 356 357 351
73 72 72 92 105 106 109 114 113 106 75 76 84 86 79 68 52 44 55 52 56 63 65 85 97 93 77 100 35 42 57 27 311 357 9 33 280 235 234 274 310 330 346 353 355
71 88 96 94 89 92 98 98 96 79 64 63 65 110 87 68 47 39 41 66 77 72 72 93 96 79 69 73 27 10 16 356 319 70 334 5 267 254 297 306 306 336 6 1 1
64 82 105 109 110 102 109 101 94 77 87 62 50 85 56 36 28 22 28 56 73 105 61 64 58 70 35 50 217 303 353 280 249 332 3 269 264 286 304 292 302 17 25 13 13
49 66 84 151 152 127 122 126 80 73 65 65 50 69 54 56 35 15 42 82 76 66 49 22 67 92 166 88 114 125 215 244 263 293 327 247 290 311 338 52 83 73 28 18 18
25 50 52 122 146 156 142 43 101 122 80 59 56 58 45 30 28 23 28 53 50 74 344 26 83 202 117 103 157 219 253 294 282 296 324 334 311 313 16 52 88 62 35 18 11
30 34 64 115 148 160 137 118 126 110 73 34 36 33 23 31 35 10 23 44 66 54 22 113 117 107 57 19 261 220 205 3 256 321 69 310 328 2 19 77 67 53 41 27 14
26 27 85 134 151 162 145 137 107 124 75 320 0 21 14 352 33 15 20 46 40 106 78 72 25 89 182 206 188 35 189 71 319 24 294 10 276 315 337 328 29 43 37 18 3
18 32 42 132 145 161 163 159 133 126 55 278 330 351 2 58 340 17 19 24 81 108 81 218 192 205 186 209 188 228 30 318 133 123 41 8 70 267 296 215 62 32 20 12 6
16 28 54 77 115 134 148 152 31 44 265 3 345 358 25 20 17 340 16 47 87 100 15 180 232 220 228 313 288 331 96 65 60 86 28 179 126 273 200 195 148 61 30 21 22
33 34 40 70 113 119 132 141 41 112 274 326 330 34 43 317 346 32 34 16 101 88 1 352 335 323 4 329 78 33 40 338 352 5 228 7 106 250 234 171 132 110 43 39 43
64 49 50 75 128 116 113 57 85 190 208 91 342 350 344 4 340 349 79 10 33 63 87 83 332 23 353 52 87 40 91 143 251 260 280 312 241 261 226 124 112 75 48 38 45
6 203 30 51 160 229 221 59 188 196 146 154 19 131 308 284 239 93 126 156 110 45 105 31 319 45 45 29 51 27 42 154 87 340 24 249 286 295 152 131 126 77 37 25 25
330 225 12 6 358 145 82 198 165 175 135 134 154 153 286 310 23 29 14 187 114 47 2 170 333 34 5 89 39 81 152 41 12 316 275 283 277 246 199 196 165 82 26 12 1
309 245 343 353 13 75 129 206 215 191 188 161 182 155 172 224 14 300 314 303 117 81 60 118 103 285 280 182 173 73 61 60 138 173 216 290 261 219 221 193 168 107 29 10 354
301 30 342 346 22 42 121 186 149 173 232 316 134 158 170 165 199 235 230 212 170 153 105 46 131 282 242 109 72 150 190 158 138 254 232 195 270 343 298 203 162 8 349 350 339
308 222 281 350 106 358 290 67 274 134 190 181 244 259 215 190 268 208 238 344 164 152 163 184 23 0 335 27 32 197 193 168 123 66 211 196 259 209 46 85 263 314 336 344 262
328 332 24 98 102 115 97 130 292 275 245 192 154 117 104 285 283 313 293 20 220 194 169 165 172 186 223 233 149 218 201 203 176 165 267 234 271 261 283 299 302 309 319 325 165
17 325 326 293 356 129 101 343 215 253 266 226 296 220 179 205 204 220 202 350 291 350 120 123 204 220 250 260 256 260 252 236 228 240 242 273 258 284 280 289 298 304 296 155 113
299 39 334 279 301 118 142 164 182 270 165 240 234 7 214 212 205 217 158 188 221 110 160 75 260 92 274 252 256 271 265 248 245 254 259 267 280 274 291 309 313 304 193 206 336
335 161 184 294 322 340 242 180 183 156 162 197 177 149 219 237 270 280 278 259 249 189 200 170 161 67 272 138 305 284 245 234 228 200 212 241 262 5 344 318 320 322 282 255 321
Height
1494 1493 1493 1494 1495 1495 1497 1500 1502 1504 1505 1506 1508 1509 1510 1511 1513 1514 1515 1518 1517 1518 1518 1519 1520 1519 1519 1521 1523 1525 1539 1546 1536 1539 1534 1533 1534 1532 1532 1532 1531 1530 1530 1529 1526
1499 1498 1498 1499 1501 1501 1502 1503 1506 1507 1509 1510 1510 1511 1512 1513 1516 1515 1517 1517 1517 1518 1519 1520 1520 1520 1521 1523 1525 1526 1540 1536 1533 1533 1534 1533 1535 1534 1532 1530 1528 1528 1528 1527 1525
1503 1503 1502 1503 1503 1504 1505 1508 1509 1511 1511 1512 1512 1513 1514 1515 1516 1518 1518 1518 1518 1518 1519 1519 1520 1520 1522 1525 1527 1529 1534 1533 1532 1533 1533 1534 1533 1532 1531 1528 1527 1527 1525 1524 1522
1507 1507 1506 1506 1507 1508 1509 1511 1513 1513 1512 1513 1514 1515 1515 1515 1521 1519 1518 1518 1518 1518 1519 1519 1520 1520 1524 1527 1528 1530 1531 1532 1532 1533 1534 1533 1532 1530 1529 1527 1526 1526 1525 1522 1520
1511 1511 1511 1510 1510 1511 1512 1513 1513 1513 1514 1514 1515 1515 1515 1517 1520 1520 1519 1519 1518 1518 1518 1519 1520 1521 1525 1527 1529 1531 1532 1532 1531 1532 1532 1531 1529 1529 1524 1524 1525 1525 1523 1520 1519
1514 1513 1512 1514 1514 1514 1514 1514 1514 1514 1515 1515 1515 1515 1516 1519 1522 1520 1520 1519 1519 1519 1519 1519 1520 1521 1524 1529 1532 1533 1532 1530 1530 1531 1530 1529 1528 1528 1522 1522 1522 1521 1519 1518 1517
1516 1516 1515 1515 1515 1515 1515 1515 1515 1516 1516 1517 1517 1517 1517 1523 1522 1521 1521 1520 1520 1520 1520 1521 1522 1523 1527 1530 1532 1532 1532 1529 1529 1529 1528 1527 1526 1525 1520 1520 1519 1518 1516 1516 1516
1517 1517 1517 1517 1516 1516 1516 1516 1517 1517 1518 1518 1518 1518 1522 1524 1524 1523 1521 1521 1522 1522 1522 1523 1523 1524 1528 1530 1532 1534 1535 1541 1529 1528 1528 1528 1527 1518 1518 1518 1516 1515 1514 1515 1513
1518 1518 1518 1518 1518 1517 1517 1517 1518 1518 1518 1518 1519 1519 1525 1525 1525 1524 1523 1523 1524 1524 1524 1525 1524 1527 1529 1533 1539 1542 1541 1540 1537 1531 1530 1528 1526 1516 1516 1515 1512 1512 1513 1513 1512
1519 1518 1518 1518 1518 1518 1519 1519 1520 1520 1521 1521 1521 1522 1526 1528 1526 1525 1525 1525 1525 1526 1527 1526 1526 1531 1536 1539 1554 1542 1543 1543 1543 1532 1531 1530 1524 1516 1511 1510 1510 1511 1512 1512 1511
1520 1519 1519 1519 1519 1520 1520 1521 1524 1524 1521 1525 1527 1526 1528 1529 1527 1527 1526 1527 1527 1528 1530 1528 1535 1540 1539 1539 1540 1542 1545 1545 1538 1533 1533 1526 1525 1514 1508 1507 1509 1511 1512 1512 1511
1520 1520 1519 1519 1519 1521 1522 1521 1522 1526 1528 1528 1528 1528 1529 1529 1529 1529 1528 1529 1528 1532 1531 1534 1538 1538 1538 1539 1541 1545 1543 1540 1534 1533 1535 1528 1522 1515 1511 1511 1511 1512 1512 1511 1511
1522 1521 1520 1520 1520 1522 1523 1524 1525 1525 1527 1531 1531 1531 1532 1532 1532 1531 1530 1530 1531 1532 1535 1536 1538 1538 1539 1541 1543 1542 1539 1537 1541 1537 1535 1534 1520 1516 1513 1513 1513 1512 1512 1512 1512
1523 1522 1521 1521 1524 1522 1524 1525 1526 1527 1542 1538 1534 1534 1534 1533 1534 1533 1531 1532 1532 1535 1537 1539 1539 1539 1540 1541 1541 1535 1536 1538 1541 1542 1542 1538 1535 1519 1517 1514 1513 1512 1512 1512 1512
1526 1523 1522 1521 1522 1523 1526 1527 1528 1529 1566 1539 1536 1535 1533 1534 1535 1534 1533 1531 1535 1537 1541 1541 1541 1540 1539 1537 1537 1536 1537 1538 1541 1546 1545 1540 1550 1522 1518 1513 1512 1512 1512 1512 1511
1528 1525 1524 1523 1523 1524 1525 1527 1529 1547 1559 1539 1536 1535 1534 1534 1534 1534 1534 1535 1536 1538 1540 1541 1539 1538 1536 1536 1536 1536 1538 1542 1548 1548 1549 1536 1546 1524 1518 1512 1511 1512 1511 1511 1510
1531 1529 1526 1525 1526 1525 1526 1528 1546 1561 1543 1541 1539 1538 1539 1539 1536 1536 1538 1540 1541 1545 1544 1542 1539 1538 1538 1537 1537 1537 1541 1557 1552 1560 1548 1541 1546 1521 1510 1510 1511 1511 1511 1510 1510
1531 1531 1529 1528 1528 1528 1528 1531 1555 1540 1540 1539 1539 1539 1539 1540 1539 1540 1541 1544 1542 1543 1554 1556 1549 1539 1540 1540 1542 1545 1545 1565 1564 1569 1559 1550 1537 1516 1511 1511 1511 1512 1511 1511 1510
1530 1529 1529 1529 1528 1528 1531 1554 1543 1540 1536 1539 1541 1541 1540 1540 1541 1539 1540 1543 1542 1541 1544 1548 1541 1542 1541 1542 1544 1547 1556 1554 1560 1570 1577 1544 1528 1513 1511 1512 1513 1513 1512 1512 1511
1530 1528 1528 1527 1527 1527 1532 1541 1537 1535 1536 1537 1537 1540 1540 1542 1540 1540 1538 1540 1540 1540 1539 1547 1550 1544 1543 1543 1546 1546 1552 1560 1570 1570 1553 1540 1535 1518 1513 1514 1514 1513 1512 1511 1510
1530 1528 1527 1526 1526 1526 1540 1541 1537 1536 1536 1537 1538 1538 1539 1539 1540 1540 1539 1539 1539 1541 1541 1546 1552 1547 1544 1544 1546 1552 1554 1560 1565 1565 1566 1571 1534 1511 1509 1510 1512 1513 1512 1511 1508
1529 1528 1528 1526 1528 1532 1535 1533 1533 1535 1536 1536 1536 1536 1537 1538 1539 1539 1539 1538 1538 1539 1543 1546 1554 1563 1544 1545 1545 1546 1547 1552 1563 1562 1566 1571 1534 1510 1508 1508 1509 1510 1510 1508 1506
1531 1525 1524 1525 1535 1536 1533 1533 1535 1534 1534 1537 1537 1537 1537 1537 1539 1538 1537 1537 1537 1538 1542 1544 1557 1573 1547 1549 1546 1544 1545 1547 1556 1561 1554 1564 1524 1508 1508 1509 1510 1508 1507 1505 1504
1532 1534 1526 1521 1525 1531 1534 1534 1534 1536 1535 1535 1536 1536 1538 1540 1540 1540 1539 1540 1539 1539 1540 1541 1550 1547 1549 1537 1542 1543 1542 1543 1546 1566 1533 1522 1504 1508 1507 1507 1504 1503 1503 1502 1504
1530 1533 1535 1533 1528 1522 1530 1538 1535 1535 1537 1536 1537 1537 1538 1541 1540 1541 1540 1540 1540 1541 1542 1543 1553 1547 1542 1541 1542 1538 1537 1538 1538 1531 1534 1492 1509 1503 1508 1504 1502 1500 1498 1499 1501
1530 1531 1534 1533 1534 1529 1525 1525 1533 1535 1534 1536 1539 1538 1540 1540 1539 1540 1539 1540 1539 1539 1540 1544 1552 1556 1553 1539 1537 1531 1529 1526 1523 1519 1516 1509 1499 1503 1501 1501 1499 1498 1498 1498 1498
1531 1529 1530 1534 1533 1535 1529 1525 1525 1527 1532 1532 1532 1533 1535 1535 1536 1537 1538 1538 1537 1537 1540 1543 1547 1552 1535 1534 1538 1534 1513 1509 1510 1511 1511 1512 1500 1501 1501 1501 1499 1497 1497 1496 1495